Weather History for San Angelo, TX

Change the Weather History Date:

Sunday, January 19, 2014

  Actual Average Record
Temperature  
Mean Temperature 49 °F 46 °F  
Max Temperature 72 °F 60 °F 87 °F (2000)
Min Temperature 26 °F 33 °F 8 °F (1943)
Degree Days  
Heating Degree Days 16 19  
Month to date heating degree days 349 361  
Since 1 July heating degree days 1448 1328  
Cooling Degree Days 0 0  
Month to date cooling degree days 0 0  
Year to date cooling degree days 0 0  
Moisture  
Dew Point 25 °F    
Average Humidity 48    
Maximum Humidity 81    
Minimum Humidity 14    
Precipitation  
Precipitation 0.00 in 0.03 in 1.54 in (1990)
Month to date precipitation T 0.52  
Year to date precipitation T 0.52  
Snow  
Snow 0.00 in 0.00 in 1.00 in (1936)
Month to date snowfall 0.0 0.8  
Since 1 July snowfall 1.5 1.4  
Snow Depth 0.00 in    
Sea Level Pressure  
Sea Level Pressure 30.20 in    
Wind  
Wind Speed 7 mph (SW)    
Max Wind Speed 20 mph    
Max Gust Speed 23 mph    
Visibility 10 miles    
Events      
T = Trace of Precipitation, MM = Missing Value Source: NWS Daily Summary

Daily Weather History Graph

Daily Weather History Graph

Search for Another Location

Airport:

Trip Planner

Search our weather history database for the weather conditions in past years. The results will help you decide how hot, cold, wet, or windy it might be!

Date:

Astronomy

Jan. 19, 2014 Rise Set
Actual Time 7:40 AM CST 6:05 PM CST
Civil Twilight 7:14 AM CST 6:31 PM CST
Nautical Twilight 6:44 AM CST 7:01 PM CST
Astronomical Twilight 6:15 AM CST 7:30 PM CST
Moon 9:28 PM CST (1/19) 9:26 AM CST (1/19)
Length of Visible Light 11h 16m
Length of Day
10h 24m
Waning Gibbous, 89% of the Moon is Illuminated
Jan 19
Waning Gibbous
Jan 23
Last Quarter
Jan 30
New
Feb 6
First Quarter
Feb 14
Full

Hourly Weather History & Observations

Time (CST) Temp. Windchill Dew Point Humidity Pressure Visibility Wind Dir Wind Speed Gust Speed Precip Events Conditions
12:51 AM 37.0 °F - 24.1 °F 59% 30.23 in 10.0 mi Calm Calm - N/A   Clear
1:51 AM 34.0 °F 28.8 °F 24.1 °F 67% 30.25 in 10.0 mi West 5.8 mph - N/A   Clear
2:51 AM 33.1 °F 26.9 °F 23.0 °F 66% 30.26 in 10.0 mi WSW 6.9 mph - N/A   Clear
3:51 AM 30.0 °F 25.2 °F 21.9 °F 72% 30.27 in 10.0 mi SSW 4.6 mph - N/A   Clear
4:51 AM 32.0 °F 27.5 °F 23.0 °F 69% 30.27 in 10.0 mi West 4.6 mph - N/A   Clear
5:51 AM 28.0 °F 22.8 °F 21.0 °F 75% 30.29 in 10.0 mi WSW 4.6 mph - N/A   Clear
6:51 AM 28.9 °F 21.1 °F 21.9 °F 75% 30.31 in 10.0 mi SW 8.1 mph - N/A   Clear
7:51 AM 27.0 °F 21.6 °F 21.9 °F 81% 30.33 in 10.0 mi WSW 4.6 mph - N/A   Clear
8:51 AM 34.0 °F 29.8 °F 23.0 °F 64% 30.35 in 10.0 mi WSW 4.6 mph - N/A   Clear
9:51 AM 43.0 °F 40.3 °F 26.1 °F 51% 30.36 in 10.0 mi WSW 4.6 mph - N/A   Clear
10:51 AM 53.1 °F - 27.0 °F 37% 30.34 in 10.0 mi South 3.5 mph - N/A   Clear
11:51 AM 62.1 °F - 23.0 °F 22% 30.30 in 10.0 mi South 8.1 mph - N/A   Clear
12:51 PM 66.0 °F - 19.0 °F 17% 30.23 in 10.0 mi Variable 4.6 mph - N/A   Clear
1:51 PM 70.0 °F - 17.1 °F 13% 30.18 in 10.0 mi SSW 12.7 mph 18.4 mph N/A   Clear
2:51 PM 71.1 °F - 21.0 °F 15% 30.15 in 10.0 mi SW 8.1 mph 20.7 mph N/A   Clear
3:51 PM 71.1 °F - 23.0 °F 16% 30.13 in 10.0 mi SSW 15.0 mph 20.7 mph N/A   Clear
4:51 PM 70.0 °F - 24.1 °F 18% 30.12 in 10.0 mi SW 12.7 mph - N/A   Clear
5:51 PM 64.0 °F - 24.1 °F 22% 30.11 in 10.0 mi SSW 10.4 mph - N/A   Clear
6:51 PM 57.9 °F - 25.0 °F 28% 30.11 in 10.0 mi South 9.2 mph - N/A   Clear
7:51 PM 55.9 °F - 27.0 °F 33% 30.11 in 10.0 mi South 9.2 mph - N/A   Clear
8:51 PM 53.1 °F - 30.0 °F 41% 30.11 in 10.0 mi South 8.1 mph - N/A   Clear
9:51 PM 48.9 °F - 30.0 °F 48% 30.09 in 10.0 mi SSW 4.6 mph - N/A   Clear
10:51 PM 53.1 °F - 34.0 °F 48% 30.06 in 10.0 mi SSW 10.4 mph - N/A   Clear
11:51 PM 55.0 °F - 35.1 °F 47% 30.03 in 10.0 mi SSW 12.7 mph - N/A   Clear